Pineville, WV

6:23 AM EDT on April 27, 2017 (GMT -0400)
Pineville

Weather History for KI16 - April, 2014

Change the Weather History Date:

Wednesday, April 23, 2014

  Actual Average (KBKW) Record (KBKW)
Temperature  
Mean Temperature 52 °F -  
Max Temperature 64 °F 65 °F 86 °F (1960)
Min Temperature 41 °F 44 °F 23 °F (1936)
Degree Days  
Heating Degree Days 12    
Growing Degree Days 2 (Base 50)    
Moisture  
Dew Point 34 °F    
Average Humidity 52    
Maximum Humidity 81    
Minimum Humidity 30    
Precipitation  
Precipitation 0.00 in - - ()
Sea Level Pressure  
Sea Level Pressure 30.01 in    
Wind  
Wind Speed - (North)    
Max Wind Speed -    
Max Gust Speed -    
Visibility 10 miles    
Events      
Averages and records for this station are not official NWS values.
T = Trace of Precipitation, MM = Missing Value Source: NWS Daily Summary

Daily Weather History Graph

Daily Weather History Graph

Search for Another Location

Airport or City:

Trip Planner

Search our weather history database for the weather conditions in past years. The results will help you decide how hot, cold, wet, or windy it might be!

Date:

Astronomy

Apr. 23, 2014 Rise Set
Actual Time 6:40 AM EDT 8:09 PM EDT
Civil Twilight 6:13 AM EDT 8:36 PM EDT
Nautical Twilight 5:40 AM EDT 9:09 PM EDT
Astronomical Twilight 5:05 AM EDT 9:44 PM EDT
Moon 3:04 AM EDT (4/23) 2:22 PM EDT (4/23)
Length of Visible Light 14h 23m
Length of Day
13h 28m
Waning Crescent, 35% of the Moon is Illuminated
Apr 23
Waning Crescent
Apr 29
New
May 6
First Quarter
May 14
Full
May 21
Last Quarter

Hourly Weather History & Observations

Time (EDT) Temp. Dew Point Humidity Pressure Visibility Wind Dir Wind Speed Gust Speed Precip Events Conditions
12:15 AM 58.1 °F 36.1 °F 44% 29.89 in 10.0 mi North - - N/A   Clear
12:35 AM 57.6 °F 33.6 °F 41% 29.89 in 10.0 mi North - - N/A   Clear
12:55 AM 57.4 °F 32.9 °F 40% 29.90 in 10.0 mi North - - N/A   Clear
1:15 AM 55.8 °F 34.3 °F 44% 29.91 in 10.0 mi North - - N/A   Clear
1:35 AM 55.4 °F 34.3 °F 45% 29.91 in 10.0 mi North - - N/A   Clear
1:55 AM 52.9 °F 35.4 °F 52% 29.91 in 10.0 mi North - - N/A   Clear
2:15 AM 51.3 °F 36.3 °F 57% 29.91 in 10.0 mi North - - N/A   Clear
2:35 AM 52.7 °F 35.8 °F 53% 29.91 in 10.0 mi North - - N/A   Clear
2:55 AM 51.8 °F 36.1 °F 55% 29.92 in 10.0 mi North - - N/A   Clear
3:15 AM 50.5 °F 36.5 °F 59% 29.92 in 10.0 mi North - - N/A   Clear
3:35 AM 49.3 °F 36.1 °F 61% 29.92 in 10.0 mi North - - N/A   Clear
3:55 AM 48.7 °F 35.6 °F 60% 29.93 in 10.0 mi North - - N/A   Clear
4:15 AM 48.2 °F 35.2 °F 61% 29.93 in 10.0 mi North - - N/A   Clear
4:35 AM 47.8 °F 35.6 °F 63% 29.94 in 10.0 mi North - - N/A   Clear
4:55 AM 46.8 °F 35.6 °F 65% 29.95 in 10.0 mi North - - N/A   Clear
5:15 AM 45.7 °F 35.8 °F 68% 29.95 in 10.0 mi North - - N/A   Clear
5:35 AM 45.5 °F 35.8 °F 69% 29.95 in 10.0 mi North - - N/A   Scattered Clouds
5:55 AM 44.2 °F 35.8 °F 72% 29.96 in 10.0 mi North - - N/A   Scattered Clouds
6:15 AM 42.8 °F 36.0 °F 77% 29.97 in 10.0 mi North - - N/A   Scattered Clouds
6:35 AM 43.7 °F 35.6 °F 73% 29.98 in 10.0 mi North - - N/A   Mostly Cloudy
6:55 AM 44.6 °F 35.6 °F 71% 29.99 in 10.0 mi North - - N/A   Overcast
7:15 AM 44.2 °F 35.6 °F 72% 30.00 in 10.0 mi North - - N/A   Overcast
7:35 AM 44.6 °F 35.1 °F 69% 30.01 in 10.0 mi North - - N/A   Overcast
7:55 AM 44.8 °F 35.4 °F 70% 30.02 in 10.0 mi North - - N/A   Overcast
8:15 AM 44.8 °F 35.1 °F 69% 30.03 in 10.0 mi North - - N/A   Overcast
8:35 AM 45.0 °F 35.2 °F 69% 30.03 in 10.0 mi North - - N/A   Mostly Cloudy
8:55 AM 46.6 °F 35.2 °F 65% 30.03 in 10.0 mi North - - N/A   Scattered Clouds
9:15 AM 47.7 °F 35.4 °F 63% 30.03 in 10.0 mi North - - N/A   Clear
9:35 AM 47.8 °F 35.4 °F 62% 30.04 in 10.0 mi North - - N/A   Clear
9:55 AM 47.7 °F 34.7 °F 61% 30.05 in 10.0 mi North - - N/A   Clear
10:15 AM 49.3 °F 34.3 °F 56% 30.05 in 10.0 mi North - - N/A   Clear
10:35 AM 49.6 °F 33.4 °F 54% 30.05 in 10.0 mi North - - N/A   Clear
10:55 AM 51.1 °F 33.8 °F 52% 30.05 in 10.0 mi North - - N/A   Clear
11:15 AM 52.2 °F 32.7 °F 48% 30.05 in 10.0 mi North - - N/A   Clear
11:35 AM 53.2 °F 32.9 °F 46% 30.05 in 10.0 mi North - - N/A   Clear
11:55 AM 54.3 °F 32.9 °F 44% 30.05 in 10.0 mi North - - N/A   Clear
12:15 PM 54.7 °F 32.0 °F 42% 30.04 in 10.0 mi North - - N/A   Clear
12:35 PM 55.4 °F 32.0 °F 41% 30.04 in 10.0 mi North - - N/A   Clear
12:55 PM 57.4 °F 31.6 °F 38% 30.03 in 10.0 mi North - - N/A   Clear
1:15 PM 58.1 °F 31.6 °F 37% 30.04 in 10.0 mi North - - N/A   Clear
1:35 PM 57.9 °F 30.9 °F 36% 30.03 in 10.0 mi North - - N/A   Clear
2:15 PM 59.4 °F 31.6 °F 35% 30.03 in 10.0 mi North - - N/A   Clear
2:35 PM 60.1 °F 31.8 °F 34% 30.03 in 10.0 mi North - - N/A   Clear
2:55 PM 60.4 °F 31.6 °F 34% 30.03 in 10.0 mi North - - N/A   Clear
3:15 PM 61.5 °F 31.8 °F 33% 30.03 in 10.0 mi North - - N/A   Clear
3:55 PM 62.6 °F 31.5 °F 31% 30.03 in 10.0 mi North - - N/A   Clear
4:15 PM 63.3 °F 31.6 °F 31% 30.03 in 10.0 mi North - - N/A   Clear
4:35 PM 63.5 °F 31.6 °F 30% 30.03 in 10.0 mi North - - N/A   Clear
4:55 PM 63.5 °F 32.0 °F 31% 30.02 in 10.0 mi North - - N/A   Clear
5:15 PM 64.0 °F 32.0 °F 30% 30.02 in 10.0 mi North - - N/A   Clear
5:35 PM 63.5 °F 32.0 °F 31% 30.02 in 10.0 mi North - - N/A   Clear
5:55 PM 63.0 °F 31.8 °F 31% 30.03 in 10.0 mi North - - N/A   Clear
6:15 PM 63.0 °F 31.1 °F 30% 30.03 in 10.0 mi North - - N/A   Clear
6:35 PM 61.9 °F 30.4 °F 31% 30.03 in 10.0 mi North - - N/A   Clear
6:55 PM 61.2 °F 30.2 °F 31% 30.03 in 10.0 mi North - - N/A   Clear
7:15 PM 59.9 °F 30.0 °F 32% 30.04 in 10.0 mi North - - N/A   Clear
7:35 PM 59.0 °F 30.4 °F 34% 30.04 in 10.0 mi North - - N/A   Clear
7:55 PM 58.1 °F 30.7 °F 35% 30.05 in 10.0 mi North - - N/A   Clear
8:15 PM 55.8 °F 31.6 °F 40% 30.06 in 10.0 mi North - - N/A   Clear
8:35 PM 51.8 °F 34.3 °F 51% 30.06 in 10.0 mi North - - N/A   Clear
8:55 PM 49.3 °F 35.6 °F 59% 30.08 in 10.0 mi North - - N/A   Clear
9:15 PM 47.7 °F 35.4 °F 63% 30.09 in 10.0 mi North - - N/A   Clear
9:35 PM 46.4 °F 36.5 °F 68% 30.09 in 10.0 mi North - - N/A   Clear
9:55 PM 45.3 °F 36.0 °F 70% 30.10 in 10.0 mi North - - N/A   Clear
10:15 PM 44.6 °F 35.4 °F 70% 30.10 in 10.0 mi North - - N/A   Clear
10:55 PM 43.2 °F 36.0 °F 76% 30.11 in 10.0 mi North - - N/A   Clear
11:15 PM 42.3 °F 35.6 °F 77% 30.11 in 10.0 mi North - - N/A   Clear
11:35 PM 41.9 °F 35.8 °F 79% 30.11 in 10.0 mi North - - N/A   Clear
11:55 PM 41.0 °F 35.6 °F 81% 30.11 in 10.0 mi North - - N/A   Clear